This is the latest recevied weather packets stored in our database for station/object KF0WJA. If no packets are shown the sender has not sent any weather packets the latest 10 day(s).
| Time | Temp. | Humidity | Pressure | Rain* | Wind** | Luminosity | Snow |
|---|---|---|---|---|---|---|---|
| 1787521225 | 28.89° C | 58% | 1018.7 hPa | 0 mm | - | 176 W/m² | - |
| 1787520920 | 28.89° C | 58% | 1019.1 hPa | 0 mm | - | 177 W/m² | - |
| 1787520616 | 28.89° C | 58% | 1019.1 hPa | 0 mm | - | 186 W/m² | - |
| 1787520311 | 28.89° C | 59% | 1018.6 hPa | 0 mm | - | 219 W/m² | - |
| 1787520007 | 28.89° C | 59% | 1018.7 hPa | 0 mm | - | 164 W/m² | - |
| 1787519703 | 28.33° C | 59% | 1018.6 hPa | 0 mm | - | 121 W/m² | - |
| 1787519402 | 28.33° C | 59% | 1018.4 hPa | 0 mm | - | 111 W/m² | - |
| 1787519098 | 28.89° C | 58% | 1018.4 hPa | 0 mm | - | 112 W/m² | - |
| 1787518791 | 29.44° C | 57% | 1018.9 hPa | 0 mm | - | 162 W/m² | - |
| 1787518489 | 28.89° C | 57% | 1019.2 hPa | 0 mm | - | 226 W/m² | - |
| 1787518189 | 28.89° C | 58% | 1019.1 hPa | 0 mm | - | 249 W/m² | - |
| 1787517885 | 28.89° C | 57% | 1019.2 hPa | 0 mm | - | 206 W/m² | - |
| 1787517580 | 28.89° C | 57% | 1019.3 hPa | 0 mm | - | 181 W/m² | - |
| 1787517277 | 29.44° C | 57% | 1019.3 hPa | 0 mm | - | 171 W/m² | - |
| 1787516976 | 29.44° C | 57% | 1019.8 hPa | 0 mm | - | 177 W/m² | - |
| 1787516671 | 29.44° C | 55% | 1019.6 hPa | 0 mm | - | 219 W/m² | - |
| 1787516366 | 30° C | 56% | 1019.6 hPa | 0 mm | - | 349 W/m² | - |
| 1787516061 | 29.44° C | 55% | 1019.7 hPa | 0 mm | - | 340 W/m² | - |
| 1787515756 | 29.44° C | 56% | 1019.5 hPa | 0 mm | - | 288 W/m² | - |
| 1787515452 | 29.44° C | 56% | 1020.1 hPa | 0 mm | - | 251 W/m² | - |
| 1787515146 | 29.44° C | 56% | 1020.3 hPa | 0 mm | - | 237 W/m² | - |
| 1787514843 | 29.44° C | 55% | 1020.2 hPa | 0 mm | - | 252 W/m² | - |
| 1787514543 | 30° C | 55% | 1020 hPa | 0 mm | - | 286 W/m² | - |
| 1787514240 | 30° C | 54% | 1019.9 hPa | 0 mm | - | 501 W/m² | - |
| 1787513939 | 29.44° C | 57% | 1020.1 hPa | 0 mm | - | 391 W/m² | - |
* Rain latest hour (hover to see other rain measurements)
** Current wind speed in m/s (hover to see current wind gust speed)